GW1987 Weather Reports


time (UTC)temp
C
wind
direction
speed
KPH
gust
KPH
rain 1hr
cm
rain 24hr
cm
rain mn
cm
humidity
%
barometer
mb
20260507234545 18 360 22.5 30.6 0.00 0.00 0.00 28 922.5
20260507234013 18 360 20.9 29.0 0.00 0.00 0.00 27 922.6
20260507233516 18 360 19.3 27.4 0.00 0.00 0.00 27 922.5
20260507233045 18 360 19.3 29.0 0.00 0.00 0.00 28 922.5
20260507232518 18 360 19.3 30.6 0.00 0.00 0.00 28 922.5
20260507232015 18 360 22.5 30.6 0.00 0.00 0.00 28 922.5
20260507231549 18 360 20.9 29.0 0.00 0.00 0.00 28 922.6
20260507231019 18 360 22.5 33.8 0.00 0.00 0.00 28 922.6
20260507230516 18 360 25.7 37.0 0.00 0.00 0.00 27 922.7
20260507230050 19 360 24.1 37.0 0.00 0.00 0.00 28 922.5
20260507225521 18 360 25.7 35.4 0.00 0.00 0.00 30 922.6
20260507225016 18 360 20.9 37.0 0.00 0.00 0.00 31 922.7
20260507224602 17 360 22.5 37.0 0.00 0.00 0.00 33 922.8
20260507224015 17 360 29.0 37.0 0.00 0.00 0.00 33 922.5
20260507223517 17 360 29.0 38.6 0.00 0.00 0.00 33 922.7
20260507223058 17 360 32.2 41.8 0.00 0.00 0.00 32 922.7
20260507222516 18 360 32.2 41.8 0.00 0.00 0.00 30 922.7
20260507222014 18 360 32.2 41.8 0.00 0.00 0.00 31 922.7
20260507221544 17 360 33.8 43.5 0.00 0.00 0.00 31 922.9
20260507221015 17 360 35.4 43.5 0.00 0.00 0.00 33 923.0
20260507220516 16 360 33.8 48.3 0.00 0.00 0.00 35 923.1
20260507220042 17 360 37.0 48.3 0.00 0.00 0.00 34 923.0
20260507215514 17 360 38.6 48.3 0.00 0.00 0.00 34 922.9
20260507215015 17 360 37.0 48.3 0.00 0.00 0.00 34 923.1
20260507214552 17 360 30.6 45.1 0.00 0.00 0.00 30 923.1
20260507214016 17 360 35.4 45.1 0.00 0.00 0.00 30 923.0
20260507213516 19 360 9.7 30.6 0.00 0.00 0.00 23 923.2
20260507213046 19 360 3.2 12.9 0.00 0.00 0.00 22 923.2
20260507212515 19 360 4.8 14.5 0.00 0.00 0.00 22 923.2
20260507212016 18 360 4.8 14.5 0.00 0.00 0.00 23 923.0
20260507211601 18 360 6.4 12.9 0.00 0.00 0.00 23 923.1
20260507211015 18 360 4.8 16.1 0.00 0.00 0.00 23 923.1
20260507210515 18 360 9.7 17.7 0.00 0.00 0.00 23 923.0
20260507210055 18 360 9.7 19.3 0.00 0.00 0.00 23 923.2
20260507205515 18 360 16.1 24.1 0.00 0.00 0.00 23 923.1
20260507205015 18 360 12.9 27.4 0.00 0.00 0.00 23 923.1
20260507204600 19 360 16.1 20.9 0.00 0.00 0.00 22 923.1
20260507204013 19 360 9.7 27.4 0.00 0.00 0.00 22 923.2
20260507203516 19 360 6.4 16.1 0.00 0.00 0.00 22 923.1
20260507203047 19 360 1.6 19.3 0.00 0.00 0.00 22 923.0
20260507202515 19 360 11.3 22.5 0.00 0.00 0.00 22 923.2
20260507202014 19 360 16.1 24.1 0.00 0.00 0.00 21 923.4
20260507201604 19 360 12.9 20.9 0.00 0.00 0.00 22 923.0
20260507201014 19 360 9.7 22.5 0.00 0.00 0.00 22 923.3
20260507200517 19 360 8.0 22.5 0.00 0.00 0.00 23 923.4
20260507195516 19 360 4.8 16.1 0.00 0.00 0.00 23 923.2
20260507195017 19 360 1.6 22.5 0.00 0.00 0.00 22 923.2
20260507194556 19 360 16.1 22.5 0.00 0.00 0.00 22 923.2
20260507194015 18 360 9.7 19.3 0.00 0.00 0.00 24 923.4
20260507193516 18 360 6.4 12.9 0.00 0.00 0.00 25 923.1
20260507193049 18 360 4.8 12.9 0.00 0.00 0.00 25 923.3
20260507192517 18 360 4.8 12.9 0.00 0.00 0.00 25 923.3
20260507192017 18 360 1.6 14.5 0.00 0.00 0.00 24 923.4
20260507191553 18 360 6.4 14.5 0.00 0.00 0.00 24 923.3
20260507191016 18 360 4.8 22.5 0.00 0.00 0.00 24 923.3
20260507190514 18 360 11.3 24.1 0.00 0.00 0.00 26 923.3
20260507190054 18 360 14.5 24.1 0.00 0.00 0.00 25 923.0
20260507185514 18 360 6.4 22.5 0.00 0.00 0.00 25 923.1
20260507185013 18 360 8.0 22.5 0.00 0.00 0.00 24 923.1
20260507184550 18 360 4.8 16.1 0.00 0.00 0.00 25 923.3
20260507184018 18 360 3.2 16.1 0.00 0.00 0.00 25 923.3
20260507183514 17 360 6.4 22.5 0.00 0.00 0.00 26 923.2
20260507183048 17 360 14.5 30.6 0.00 0.00 0.00 26 923.3
20260507182516 17 360 9.7 25.7 0.00 0.00 0.00 26 923.3
20260507182017 17 360 9.7 19.3 0.00 0.00 0.00 26 923.5
20260507181550 17 360 11.3 22.5 0.00 0.00 0.00 25 923.4
20260507181018 18 360 16.1 25.7 0.00 0.00 0.00 25 923.2
20260507180513 18 360 19.3 25.7 0.00 0.00 0.00 25 923.5
20260507180049 18 360 0.0 9.7 0.00 0.00 0.00 25 923.7
20260507175518 18 360 4.8 14.5 0.00 0.00 0.00 25 923.4
20260507175015 18 360 6.4 17.7 0.00 0.00 0.00 26 923.5
20260507174555 17 360 4.8 22.5 0.00 0.00 0.00 27 923.7
20260507174016 17 360 12.9 30.6 0.00 0.00 0.00 27 923.8
20260507173517 17 360 20.9 30.6 0.00 0.00 0.00 26 923.6
20260507173048 17 360 14.5 29.0 0.00 0.00 0.00 26 923.6
20260507172517 17 360 19.3 29.0 0.00 0.00 0.00 26 923.8
20260507172014 17 360 16.1 25.7 0.00 0.00 0.00 26 923.8
20260507171555 17 360 6.4 24.1 0.00 0.00 0.00 27 923.9
20260507171015 17 360 9.7 24.1 0.00 0.00 0.00 27 923.9
20260507170513 17 360 17.7 24.1 0.00 0.00 0.00 27 923.8
20260507170053 17 360 9.7 24.1 0.00 0.00 0.00 27 923.9
20260507165517 17 360 4.8 22.5 0.00 0.00 0.00 27 923.8
20260507165017 17 360 12.9 22.5 0.00 0.00 0.00 27 923.7
20260507164553 17 360 3.2 29.0 0.00 0.00 0.00 27 923.9
20260507164015 17 360 17.7 29.0 0.00 0.00 0.00 28 923.7
20260507163517 17 360 12.9 25.7 0.00 0.00 0.00 28 923.9
20260507163052 17 360 12.9 25.7 0.00 0.00 0.00 27 923.9
20260507162515 17 360 11.3 27.4 0.00 0.00 0.00 28 924.0
20260507162016 17 360 16.1 27.4 0.00 0.00 0.00 28 924.0
20260507161549 17 360 4.8 22.5 0.00 0.00 0.00 28 923.9
20260507161014 17 360 11.3 20.9 0.00 0.00 0.00 28 924.0
20260507160516 16 360 9.7 19.3 0.00 0.00 0.00 28 923.8
20260507160052 16 360 9.7 17.7 0.00 0.00 0.00 29 923.8
20260507155517 16 360 11.3 16.1 0.00 0.00 0.00 29 923.8
20260507155016 16 360 4.8 14.5 0.00 0.00 0.00 30 924.0
20260507154547 16 360 4.8 17.7 0.00 0.00 0.00 30 923.8
20260507154017 15 360 9.7 17.7 0.00 0.00 0.00 30 923.8
20260507153518 15 360 4.8 17.7 0.00 0.00 0.00 30 923.7
20260507153059 15 360 11.3 17.7 0.00 0.00 0.00 30 923.6
20260507152519 15 360 9.7 16.1 0.00 0.00 0.00 30 923.7
20260507152015 15 360 4.8 16.1 0.00 0.00 0.00 29 923.7
20260507151550 15 360 8.0 14.5 0.00 0.00 0.00 29 923.8
20260507151015 15 360 6.4 12.9 0.00 0.00 0.00 30 923.7
20260507150518 15 360 4.8 17.7 0.00 0.00 0.00 30 923.8
20260507150045 15 360 4.8 17.7 0.00 0.00 0.00 30 923.8
20260507145514 15 360 8.0 14.5 0.00 0.00 0.00 30 923.7
20260507145017 14 360 4.8 14.5 0.00 0.00 0.00 30 923.7
20260507144545 14 360 9.7 14.5 0.00 0.00 0.00 30 923.6
20260507144015 14 360 9.7 17.7 0.00 0.00 0.00 31 923.6
20260507143515 14 360 12.9 17.7 0.00 0.00 0.00 31 923.6
20260507143047 13 360 12.9 19.3 0.00 0.00 0.00 32 923.5
20260507142516 13 360 12.9 19.3 0.00 0.00 0.00 32 923.5
20260507142013 13 360 8.0 14.5 0.00 0.00 0.00 34 923.5
20260507141550 13 360 6.4 12.9 0.00 0.00 0.00 35 923.5
20260507141015 12 360 6.4 9.7 0.00 0.00 0.00 37 923.6
20260507140517 12 360 4.8 12.9 0.00 0.00 0.00 38 923.6
20260507140105 11 360 6.4 12.9 0.00 0.00 0.00 38 923.5
20260507135517 11 360 9.7 12.9 0.00 0.00 0.00 39 923.7
20260507135014 11 360 9.7 12.9 0.00 0.00 0.00 40 923.5
20260507134550 10 360 4.8 8.0 0.00 0.00 0.00 42 923.5
20260507134018 10 360 4.8 9.7 0.00 0.00 0.00 42 923.4
20260507133518 9 360 6.4 9.7 0.00 0.00 0.00 43 923.3
20260507133049 8 360 8.0 9.7 0.00 0.00 0.00 44 923.2
20260507132516 8 360 3.2 9.7 0.00 0.00 0.00 44 923.3
20260507132020 8 360 4.8 9.7 0.00 0.00 0.00 45 923.2
20260507131550 7 360 3.2 6.4 0.00 0.00 0.00 46 923.4
20260507131015 7 360 3.2 6.4 0.00 0.00 0.00 45 923.2
20260507130517 7 360 3.2 6.4 0.00 0.00 0.00 45 923.2
20260507130056 7 360 3.2 9.7 0.00 0.00 0.00 45 923.1
20260507125517 7 360 6.4 9.7 0.00 0.00 0.00 45 923.1
20260507125016 7 360 6.4 14.5 0.00 0.00 0.00 46 923.1
20260507124555 7 360 8.0 14.5 0.00 0.00 0.00 46 923.0
20260507124019 7 360 8.0 14.5 0.00 0.00 0.00 46 922.9
20260507123519 7 360 11.3 14.5 0.00 0.00 0.00 46 923.0
20260507123030 6 360 11.3 14.5 0.00 0.00 0.00 46 922.7
20260507122516 7 360 8.0 14.5 0.00 0.00 0.00 45 922.5
20260507122012 7 360 11.3 16.1 0.00 0.00 0.00 45 922.6
20260507121530 7 360 12.9 16.1 0.00 0.00 0.00 44 922.6
20260507121011 7 360 12.9 16.1 0.00 0.00 0.00 44 922.6
20260507120512 7 360 8.0 9.7 0.00 0.00 0.00 43 922.3
20260507120027 8 360 3.2 6.4 0.00 0.00 0.00 42 922.2
20260507115516 8 360 3.2 6.4 0.00 0.00 0.00 42 922.3
20260507115014 8 360 3.2 6.4 0.00 0.00 0.00 42 922.1
20260507114531 8 360 3.2 6.4 0.00 0.00 0.00 41 922.2
20260507114011 8 360 3.2 4.8 0.00 0.00 0.00 41 922.1
20260507113513 8 360 0.0 8.0 0.00 0.00 0.00 42 922.1
20260507113034 8 360 3.2 8.0 0.00 0.00 0.00 41 922.2
20260507112512 8 360 4.8 8.0 0.00 0.00 0.00 39 922.3
20260507112012 8 360 0.0 8.0 0.00 0.00 0.00 40 922.2
20260507111533 8 360 4.8 8.0 0.00 0.00 0.00 40 922.1
20260507111013 8 360 6.4 8.0 0.00 0.00 0.00 42 921.9
20260507110509 7 360 1.6 8.0 0.00 0.00 0.00 43 922.1
20260507110028 7 360 3.2 8.0 0.00 0.00 0.00 42 922.0
20260507105513 7 360 6.4 8.0 0.00 0.00 0.00 42 922.0
20260507105010 7 360 3.2 4.8 0.00 0.00 0.00 41 921.9
20260507104531 7 360 0.0 6.4 0.00 0.00 0.00 41 921.9
20260507104010 7 360 3.2 8.0 0.00 0.00 0.00 40 921.9
20260507103511 8 360 4.8 8.0 0.00 0.00 0.00 40 922.0
20260507103031 8 360 6.4 8.0 0.00 0.00 0.00 40 922.0
20260507102512 8 360 4.8 8.0 0.00 0.00 0.00 40 922.1
20260507102012 8 360 4.8 8.0 0.00 0.00 0.00 40 921.9
20260507101549 8 360 4.8 8.0 0.00 0.00 0.00 39 922.0
20260507101013 8 360 6.4 12.9 0.00 0.00 0.00 39 922.1
20260507100511 8 360 8.0 12.9 0.00 0.00 0.00 39 922.0
20260507100034 8 360 8.0 9.7 0.00 0.00 0.00 39 922.1
20260507095510 8 360 6.4 8.0 0.00 0.00 0.00 39 922.0
20260507095016 8 360 4.8 8.0 0.00 0.00 0.00 39 922.0
20260507094529 8 360 6.4 8.0 0.00 0.00 0.00 38 922.1
20260507094011 8 360 4.8 6.4 0.00 0.00 0.00 38 921.9
20260507093510 8 360 1.6 4.8 0.00 0.00 0.00 37 921.9
20260507093032 8 360 1.6 4.8 0.00 0.00 0.00 36 921.7
20260507092519 8 360 1.6 6.4 0.00 0.00 0.00 35 921.8
20260507092009 9 360 3.2 6.4 0.00 0.00 0.00 35 921.7
20260507091550 8 360 0.0 3.2 0.00 0.00 0.00 36 921.5
20260507091015 8 360 0.0 4.8 0.00 0.00 0.00 36 921.5
20260507090513 9 360 1.6 14.5 0.00 0.00 0.00 36 921.4
20260507090032 8 360 8.0 16.1 0.00 0.00 0.00 37 921.2
20260507085511 9 360 12.9 16.1 0.00 0.00 0.00 36 921.1
20260507085011 9 360 8.0 16.1 0.00 0.00 0.00 37 921.1
20260507084535 8 360 12.9 16.1 0.00 0.00 0.00 41 920.9
20260507084014 8 360 11.3 12.9 0.00 0.00 0.00 40 920.8
20260507083511 9 360 8.0 9.7 0.00 0.00 0.00 39 920.9
20260507083031 9 360 3.2 9.7 0.00 0.00 0.00 39 920.8
20260507082511 9 360 6.4 9.7 0.00 0.00 0.00 39 920.7
20260507082012 9 360 6.4 14.5 0.00 0.00 0.00 39 920.8
20260507081545 9 360 11.3 14.5 0.00 0.00 0.00 38 920.7
20260507081011 10 360 8.0 14.5 0.00 0.00 0.00 38 920.4
20260507080515 10 360 11.3 14.5 0.00 0.00 0.00 38 920.4
20260507080031 10 360 9.7 14.5 0.00 0.00 0.00 38 920.5
20260507075513 10 360 9.7 14.5 0.00 0.00 0.00 38 920.2
20260507075017 11 360 9.7 17.7 0.00 0.00 0.00 37 920.1
20260507074536 11 360 14.5 19.3 0.00 0.00 0.00 37 920.1
20260507074012 11 360 14.5 19.3 0.00 0.00 0.00 37 920.1
20260507073511 12 360 16.1 20.9 0.00 0.00 0.00 36 920.0
20260507073031 12 360 17.7 20.9 0.00 0.00 0.00 37 919.9
20260507072514 12 360 19.3 22.5 0.00 0.00 0.00 38 919.8
20260507072015 12 360 19.3 27.4 0.00 0.00 0.00 38 919.9
20260507071528 13 360 20.9 27.4 0.00 0.00 0.00 37 920.0
20260507071012 13 360 22.5 30.6 0.00 0.00 0.00 37 919.9
20260507070512 13 360 22.5 29.0 0.00 0.00 0.00 38 920.0
20260507070030 13 360 19.3 25.7 0.00 0.00 0.00 39 920.0
20260507065513 12 360 17.7 22.5 0.00 0.00 0.00 40 919.9
20260507065012 12 360 17.7 33.8 0.00 0.00 0.00 40 919.9
20260507064532 12 360 24.1 35.4 0.00 0.00 0.00 40 919.8
20260507064014 12 360 30.6 35.4 0.00 0.00 0.00 41 919.5
20260507063512 12 360 19.3 27.4 0.00 0.00 0.00 41 919.7
20260507063030 12 360 20.9 29.0 0.00 0.00 0.00 41 919.3
20260507062517 12 360 24.1 29.0 0.00 0.00 0.00 41 919.1
20260507062014 11 360 22.5 27.4 0.00 0.00 0.00 41 918.8
20260507061534 11 360 20.9 25.7 0.00 0.00 0.00 42 918.9
20260507061012 11 360 19.3 24.1 0.00 0.00 0.00 42 918.9
20260507060512 11 360 17.7 20.9 0.00 0.00 0.00 42 918.6
20260507060032 11 360 11.3 17.7 0.00 0.00 0.00 40 918.6
20260507055511 12 360 9.7 20.9 0.00 0.00 0.00 38 918.7
20260507055012 12 360 16.1 22.5 0.00 0.00 0.00 38 918.6
20260507054530 12 360 17.7 25.7 0.00 0.00 0.00 37 918.5
20260507054011 12 360 19.3 25.7 0.00 0.00 0.00 38 918.5
20260507053511 12 360 19.3 25.7 0.00 0.00 0.00 37 918.5
20260507053031 12 360 17.7 24.1 0.00 0.00 0.00 37 918.5
20260507052512 12 360 16.1 24.1 0.00 0.00 0.00 36 918.5
20260507052013 13 360 17.7 24.1 0.00 0.00 0.00 36 918.6
20260507051535 13 360 17.7 22.5 0.00 0.00 0.00 36 918.7
20260507051011 13 360 16.1 27.4 0.00 0.00 0.00 35 918.7
20260507050511 14 360 20.9 29.0 0.00 0.00 0.00 34 918.6
20260507050034 14 360 22.5 30.6 0.00 0.00 0.00 34 918.6
20260507045512 14 360 22.5 30.6 0.00 0.00 0.00 34 918.5
20260507045013 14 360 20.9 29.0 0.00 0.00 0.00 34 918.5
20260507044545 14 360 22.5 29.0 0.00 0.00 0.00 34 918.6
20260507044019 14 360 20.9 27.4 0.00 0.00 0.00 34 918.5
20260507043511 14 360 20.9 27.4 0.00 0.00 0.00 34 918.6
20260507043040 14 360 20.9 27.4 0.00 0.00 0.00 33 918.7
20260507042520 15 360 22.5 27.4 0.00 0.00 0.00 33 918.7
20260507042012 15 360 22.5 27.4 0.00 0.00 0.00 32 918.7
20260507041536 15 360 20.9 25.7 0.00 0.00 0.00 32 918.8
20260507041012 15 360 19.3 25.7 0.00 0.00 0.00 31 918.8
20260507040513 15 360 20.9 25.7 0.00 0.00 0.00 31 918.7
20260507040043 15 360 19.3 27.4 0.00 0.00 0.00 31 918.6
20260507035511 15 360 20.9 27.4 0.00 0.00 0.00 30 918.6
20260507035012 15 360 20.9 27.4 0.00 0.00 0.00 30 918.5
20260507034533 15 360 17.7 24.1 0.00 0.00 0.00 30 918.6
20260507034012 15 360 16.1 24.1 0.00 0.00 0.00 30 918.6
20260507033512 16 360 16.1 20.9 0.00 0.00 0.00 30 918.6
20260507033033 15 360 16.1 20.9 0.00 0.00 0.00 30 918.7
20260507032513 15 360 16.1 20.9 0.00 0.00 0.00 30 918.7
20260507032012 15 360 12.9 17.7 0.00 0.00 0.00 29 918.6
20260507031537 16 360 11.3 19.3 0.00 0.00 0.00 29 918.8
20260507031011 16 360 14.5 20.9 0.00 0.00 0.00 29 918.8
20260507030513 16 360 14.5 17.7 0.00 0.00 0.00 28 918.9
20260507030040 16 360 12.9 17.7 0.00 0.00 0.00 28 918.9
20260507025513 16 360 12.9 20.9 0.00 0.00 0.00 27 919.0
20260507025014 17 360 14.5 20.9 0.00 0.00 0.00 27 918.8
20260507024535 17 360 14.5 20.9 0.00 0.00 0.00 26 918.7
20260507024013 17 360 14.5 25.7 0.00 0.00 0.00 25 918.7
20260507023513 18 360 19.3 29.0 0.00 0.00 0.00 25 918.7
20260507023034 18 360 22.5 35.4 0.00 0.00 0.00 24 918.9
20260507022513 18 360 27.4 35.4 0.00 0.00 0.00 24 918.6
20260507022015 18 360 25.7 35.4 0.00 0.00 0.00 23 918.5
20260507021531 18 360 25.7 35.4 0.00 0.00 0.00 22 918.5
20260507021013 18 360 25.7 37.0 0.00 0.00 0.00 22 918.6
20260507020513 19 360 25.7 37.0 0.00 0.00 0.00 21 918.6
20260507020037 19 360 24.1 35.4 0.00 0.00 0.00 21 918.7
20260507015512 19 360 25.7 37.0 0.00 0.00 0.00 20 918.7
20260507015014 20 360 29.0 41.8 0.00 0.00 0.00 19 918.7
20260507014550 20 360 33.8 41.8 0.00 0.00 0.00 18 918.6
20260507014013 21 360 33.8 41.8 0.00 0.00 0.00 17 918.7
20260507013512 21 360 32.2 41.8 0.00 0.00 0.00 17 918.7
20260507013035 21 360 33.8 43.5 0.00 0.00 0.00 17 918.8
20260507012519 21 360 33.8 43.5 0.00 0.00 0.00 16 918.7
20260507012011 21 360 29.0 45.1 0.00 0.00 0.00 16 918.8
20260507011535 21 360 37.0 45.1 0.00 0.00 0.00 15 918.7
20260507011017 21 360 38.6 45.1 0.00 0.00 0.00 15 918.6
20260507010511 21 360 33.8 43.5 0.00 0.00 0.00 14 918.7
20260507010036 21 360 32.2 43.5 0.00 0.00 0.00 14 918.7
20260507005517 21 360 25.7 33.8 0.00 0.00 0.00 11 918.9
20260507005012 21 360 27.4 32.2 0.00 0.00 0.00 10 918.9
20260507004532 21 360 22.5 30.6 0.00 0.00 0.00 10 918.7
20260507004014 21 360 25.7 32.2 0.00 0.00 0.00 10 918.8
20260507003513 21 360 27.4 32.2 0.00 0.00 0.00 10 918.7
20260507003039 21 360 24.1 30.6 0.00 0.00 0.00 10 918.8
20260507002512 21 360 24.1 37.0 0.00 0.00 0.00 10 918.9
20260507002013 21 360 25.7 35.4 0.00 0.00 0.00 10 918.8
20260507001536 22 360 22.5 38.6 0.00 0.00 0.00 10 918.7
20260507001015 22 360 30.6 38.6 0.00 0.00 0.00 10 918.8
20260507000514 22 360 24.1 33.8 0.00 0.00 0.00 10 918.9
20260507000035 22 360 20.9 35.4 0.00 0.00 0.00 10 919.0
20260506235513 22 360 25.7 37.0 0.00 0.00 0.00 10 918.9
20260506235012 22 360 19.3 37.0 0.00 0.00 0.00 9 918.8